Dades meteomassalio
Diari Summary for Octubre 4, 2017 Units:  Metric    English   Both
« Previous Day
Next Day »
Diari Semanal Mensual Anual Personalitzat
  Maxima: Minima: Mijana:
Temperatura: -17.8 °C -12.8 °C -8 °C
Rosada: -17.8 °C -13.8 °C -11.2 °C
Humitat: Humidity % 42 % 70 %
Velocitat del vent: 0 km/h 0 km/h 6.9 km/h
Racha vent: 0 km/h - -
Vent:- - SSW
Pressio: 0 hPa 34645.6 hPa -
Pluja: 0 mm    
Historical Graphs
 
 
Tabular Data for Octubre 4, 2017
Time Temperature Dew Point Pressure Wind Wind Speed Wind Gust Humidity Rainfall Rate (Hourly) solar Conditions
-17.8 °C -17.8 °C 0 hPa Calm     Humidity % 0 mm SolarRadiationWatts/m^2 W/m2 Conditions
00:03 -10.1 °C -12.2 °C 34693 hPa Calm     78 % 0 mm 0.0 W/m2 CLR
00:04 -10.1 °C -12.2 °C 34703.1 hPa Calm     78 % 0 mm 0.0 W/m2 CLR
00:09 -10.1 °C -12.2 °C 34703.1 hPa Calm     78 % 0 mm 0.0 W/m2 CLR
00:14 -10.1 °C -12.2 °C 34703.1 hPa Calm     78 % 0 mm 0.0 W/m2 CLR
00:19 -10.1 °C -12.2 °C 34703.1 hPa Calm     78 % 0 mm 0.0 W/m2 CLR
00:24 -10.1 °C -12.2 °C 34716.7 hPa Calm     78 % 0 mm 0.0 W/m2 CLR
00:29 -10.4 °C -12.4 °C 34716.7 hPa Calm     78 % 0 mm 0.0 W/m2 CLR
00:34 -10.4 °C -12.4 °C 34716.7 hPa Calm     78 % 0 mm 0.0 W/m2 CLR
00:39 -10.4 °C -12.4 °C 34716.7 hPa Calm     78 % 0 mm 0.0 W/m2 CLR
00:44 -10.7 °C -12.7 °C 34716.7 hPa Calm     78 % 0 mm 0.0 W/m2 CLR
00:49 -10.7 °C -12.7 °C 34716.7 hPa Calm     79 % 0 mm 0.0 W/m2 CLR
00:54 -10.7 °C -12.7 °C 34716.7 hPa Calm     79 % 0 mm 0.0 W/m2 CLR
00:59 -10.7 °C -12.7 °C 34716.7 hPa Calm     79 % 0 mm 0.0 W/m2 CLR
01:04 -10.7 °C -12.6 °C 34716.7 hPa Calm     80 % 0 mm 0.0 W/m2 CLR
01:09 -10.7 °C -12.7 °C 34703.1 hPa Calm     79 % 0 mm 0.0 W/m2 CLR
01:14 -10.7 °C -12.6 °C 34703.1 hPa Calm     80 % 0 mm 0.0 W/m2 CLR
01:19 -10.7 °C -12.6 °C 34716.7 hPa Calm     80 % 0 mm 0.0 W/m2 CLR
01:24 -10.7 °C -12.6 °C 34716.7 hPa Calm     80 % 0 mm 0.0 W/m2 CLR
01:29 -10.7 °C -12.7 °C 34703.1 hPa Calm     79 % 0 mm 0.0 W/m2 CLR
01:34 -10.7 °C -12.7 °C 34703.1 hPa Calm     79 % 0 mm 0.0 W/m2 CLR
01:39 -10.7 °C -12.6 °C 34703.1 hPa Calm     80 % 0 mm 0.0 W/m2 CLR
01:44 -10.7 °C -12.6 °C 34703.1 hPa Calm     80 % 0 mm 0.0 W/m2 CLR
01:49 -10.7 °C -12.4 °C 34703.1 hPa Calm     81 % 0 mm 0.0 W/m2 CLR
01:59 -11 °C -12.7 °C 34693 hPa Calm     81 % 0 mm 0.0 W/m2 CLR
02:04 -11 °C -12.7 °C 34693 hPa Calm     81 % 0 mm 0.0 W/m2 CLR
02:09 -11.3 °C -13.1 °C 34693 hPa Calm     81 % 0 mm 0.0 W/m2 CLR
02:15 -11.3 °C -13.1 °C 34693 hPa Calm     81 % 0 mm 0.0 W/m2 CLR
02:20 -11.3 °C -13.1 °C 34693 hPa Calm     81 % 0 mm 0.0 W/m2 CLR
02:25 -11.3 °C -13.1 °C 34693 hPa Calm     81 % 0 mm 0.0 W/m2 CLR
02:30 -11.3 °C -13.1 °C 34693 hPa Calm     81 % 0 mm 0.0 W/m2 CLR
02:35 -11.3 °C -13.1 °C 34703.1 hPa Calm     81 % 0 mm 0.0 W/m2 CLR
02:37 -11.3 °C -13.1 °C 34703.1 hPa Calm     81 % 0 mm 0.0 W/m2 CLR
02:42 -11.3 °C -13.2 °C 34703.1 hPa Calm     80 % 0 mm 0.0 W/m2 CLR
02:47 -11.3 °C -13.2 °C 34703.1 hPa Calm     80 % 0 mm 0.0 W/m2 CLR
02:52 -11.3 °C -13.2 °C 34703.1 hPa Calm     80 % 0 mm 0.0 W/m2 CLR
03:02 -11.3 °C -12.8 °C 34703.1 hPa Calm     83 % 0 mm 0.0 W/m2 CLR
03:07 -11.6 °C -13.2 °C 34703.1 hPa Calm     82 % 0 mm 0.0 W/m2 CLR
03:12 -11.6 °C -13.2 °C 34703.1 hPa Calm     82 % 0 mm 0.0 W/m2 CLR
03:17 -11.6 °C -13.4 °C 34703.1 hPa Calm     81 % 0 mm 0.0 W/m2 CLR
03:22 -11.6 °C -13.4 °C 34703.1 hPa Calm     81 % 0 mm 0.0 W/m2 CLR
03:27 -11.6 °C -13.4 °C 34703.1 hPa Calm     81 % 0 mm 0.0 W/m2 CLR
03:32 -11.6 °C -13.2 °C 34703.1 hPa Calm     82 % 0 mm 0.0 W/m2 CLR
03:37 -11.6 °C -13.2 °C 34703.1 hPa Calm     82 % 0 mm 0.0 W/m2 CLR
03:42 -11.6 °C -13.2 °C 34703.1 hPa Calm     83 % 0 mm 0.0 W/m2 CLR
03:47 -11.6 °C -13.2 °C 34703.1 hPa Calm     83 % 0 mm 0.0 W/m2 CLR
03:52 -11.9 °C -13.4 °C 34703.1 hPa Calm     83 % 0 mm 0.0 W/m2 CLR
03:57 -11.9 °C -13.4 °C 34703.1 hPa Calm     84 % 0 mm 0.0 W/m2 CLR
04:02 -11.9 °C -13.4 °C 34703.1 hPa Calm     83 % 0 mm 0.0 W/m2 CLR
04:07 -11.9 °C -13.4 °C 34703.1 hPa Calm     84 % 0 mm 0.0 W/m2 CLR
04:12 -11.9 °C -13.4 °C 34703.1 hPa Calm     84 % 0 mm 0.0 W/m2 CLR
04:17 -11.9 °C -13.4 °C 34703.1 hPa Calm     84 % 0 mm 0.0 W/m2 CLR
04:22 -11.9 °C -13.4 °C 34703.1 hPa Calm     84 % 0 mm 0.0 W/m2 CLR
04:27 -11.9 °C -13.4 °C 34703.1 hPa Calm     84 % 0 mm 0.0 W/m2 CLR
04:32 -11.9 °C -13.4 °C 34703.1 hPa Calm     84 % 0 mm 0.0 W/m2 CLR
04:37 -11.9 °C -13.3 °C 34703.1 hPa Calm     85 % 0 mm 0.0 W/m2 CLR
04:42 -11.9 °C -13.4 °C 34716.7 hPa Calm     84 % 0 mm 0.0 W/m2 CLR
04:47 -11.9 °C -13.3 °C 34716.7 hPa Calm     85 % 0 mm 0.0 W/m2 CLR
04:52 -11.9 °C -13.2 °C 34716.7 hPa Calm     86 % 0 mm 0.0 W/m2 CLR
04:57 -11.6 °C -12.9 °C 34716.7 hPa Calm     86 % 0 mm 0.0 W/m2 CLR
05:02 -11.6 °C -12.9 °C 34716.7 hPa Calm     86 % 0 mm 0.0 W/m2 CLR
05:07 -11.6 °C -12.9 °C 34716.7 hPa Calm     86 % 0 mm 0.0 W/m2 CLR
05:12 -11.9 °C -13.2 °C 34716.7 hPa Calm     86 % 0 mm 0.0 W/m2 CLR
05:17 -11.9 °C -13.2 °C 34716.7 hPa Calm     86 % 0 mm 0.0 W/m2 CLR
05:22 -11.9 °C -13.2 °C 34716.7 hPa Calm     86 % 0 mm 0.0 W/m2 CLR
05:27 -11.9 °C -13.2 °C 34716.7 hPa Calm     86 % 0 mm 0.0 W/m2 CLR
05:32 -11.9 °C -13.1 °C 34716.7 hPa Calm     87 % 0 mm 0.0 W/m2 CLR
05:37 -11.9 °C -13.1 °C 34716.7 hPa Calm     87 % 0 mm 0.0 W/m2 CLR
05:43 -12.2 °C -13.4 °C 34716.7 hPa Calm     87 % 0 mm 0.0 W/m2 CLR
05:48 -12.2 °C -13.4 °C 34716.7 hPa Calm     87 % 0 mm 0.0 W/m2 CLR
05:53 -12.2 °C -13.4 °C 34716.7 hPa Calm     87 % 0 mm 0.0 W/m2 CLR
05:58 -12.2 °C -13.4 °C 34726.8 hPa Calm     87 % 0 mm 0.0 W/m2 CLR
06:03 -12.2 °C -13.4 °C 34726.8 hPa Calm     87 % 0 mm 0.0 W/m2 CLR
06:08 -12.2 °C -13.4 °C 34740.4 hPa Calm     87 % 0 mm 0.0 W/m2 CLR
06:13 -12.2 °C -13.4 °C 34740.4 hPa Calm     87 % 0 mm 0.0 W/m2 CLR
06:18 -12.2 °C -13.4 °C 34740.4 hPa Calm     87 % 0 mm 0.0 W/m2 CLR
06:23 -12.2 °C -13.3 °C 34740.4 hPa Calm     88 % 0 mm 0.0 W/m2 CLR
06:28 -11.9 °C -12.9 °C 34740.4 hPa Calm     88 % 0 mm 0.0 W/m2 CLR
06:33 -11.9 °C -12.9 °C 34740.4 hPa Calm     88 % 0 mm 0.0 W/m2 CLR
06:38 -12.2 °C -13.3 °C 34750.5 hPa Calm     88 % 0 mm 0.0 W/m2 CLR
06:43 -12.2 °C -13.3 °C 34750.5 hPa Calm     88 % 0 mm 0.0 W/m2 CLR
06:48 -12.2 °C -13.4 °C 34750.5 hPa Calm     87 % 0 mm 0.0 W/m2 CLR
06:53 -12.6 °C -13.7 °C 34750.5 hPa Calm     87 % 0 mm 0.0 W/m2 CLR
06:58 -12.6 °C -13.7 °C 34750.5 hPa Calm     87 % 0 mm 0.0 W/m2 CLR
07:03 -12.6 °C -13.7 °C 34750.5 hPa Calm     87 % 0 mm 0.0 W/m2 CLR
07:08 -12.6 °C -13.6 °C 34760.7 hPa Calm     88 % 0 mm 0.0 W/m2 CLR
07:18 -12.6 °C -13.6 °C 34760.7 hPa Calm     88 % 0 mm 0.0 W/m2 CLR
07:23 -12.6 °C -13.7 °C 34760.7 hPa Calm     87 % 0 mm 0.0 W/m2 CLR
07:28 -12.6 °C -13.7 °C 34760.7 hPa Calm     87 % 0 mm 0.0 W/m2 CLR
07:33 -12.6 °C -13.6 °C 34760.7 hPa Calm     88 % 0 mm 0.0 W/m2 CLR
07:43 -12.6 °C -13.6 °C 34760.7 hPa Calm     88 % 0 mm 0.0 W/m2 CLR
07:49 -12.6 °C -13.6 °C 34760.7 hPa Calm     88 % 0 mm 0.0 W/m2 CLR
07:54 -12.6 °C -13.6 °C 34750.5 hPa Calm     88 % 0 mm 0.0 W/m2 OVC
07:59 -12.6 °C -13.5 °C 34750.5 hPa Calm     89 % 0 mm 5.0 W/m2 OVC
08:04 -12.8 °C -13.8 °C 34760.7 hPa Calm     89 % 0 mm 7.0 W/m2 BKN
08:09 -12.8 °C -13.8 °C 34760.7 hPa Calm     89 % 0 mm 9.0 W/m2 BKN
08:14 -12.8 °C -13.8 °C 34760.7 hPa Calm     89 % 0 mm 12.0 W/m2 BKN
08:19 -12.8 °C -13.8 °C 34750.5 hPa Calm     89 % 0 mm 14.0 W/m2 BKN
08:24 -12.8 °C -13.8 °C 34750.5 hPa Calm     89 % 0 mm 18.0 W/m2 BKN
08:29 -12.6 °C -13.5 °C 34760.7 hPa Calm     89 % 0 mm 25.0 W/m2 BKN
08:34 -12.6 °C -13.5 °C 34760.7 hPa Calm     89 % 0 mm 35.0 W/m2 BKN
08:39 -12.6 °C -13.5 °C 34760.7 hPa Calm     89 % 0 mm 46.0 W/m2 SCT
08:44 -12.2 °C -13.2 °C 34760.7 hPa Calm     89 % 0 mm 47.0 W/m2 SCT
08:49 -12.2 °C -13.3 °C 34760.7 hPa Calm     88 % 0 mm 63.0 W/m2 SCT
08:54 -11.9 °C -13.1 °C 34760.7 hPa Calm     87 % 0 mm 60.0 W/m2 SCT
08:59 -11.9 °C -13.2 °C 34760.7 hPa Calm     86 % 0 mm 69.0 W/m2 FEW
09:04 -11.9 °C -13.3 °C 34760.7 hPa Calm     85 % 0 mm 116.0 W/m2 FEW
09:09 -11.6 °C -12.9 °C 34760.7 hPa Calm     85 % 0 mm 134.0 W/m2 FEW
09:14 -11.6 °C -13.1 °C 34760.7 hPa Calm     84 % 0 mm 84.0 W/m2 CLR
09:16 -11.6 °C -13.1 °C 34760.7 hPa Calm     84 % 0 mm 156.0 W/m2 CLR
09:21 -11.3 °C -12.7 °C 34760.7 hPa Calm     84 % 0 mm 174.0 W/m2 CLR
09:26 -11.3 °C -12.8 °C 34760.7 hPa Calm     83 % 0 mm 192.0 W/m2 CLR
09:31 -11 °C -12.7 °C 34760.7 hPa Calm     82 % 0 mm 211.0 W/m2 CLR
09:36 -11 °C -12.8 °C 34760.7 hPa Calm     80 % 0 mm 229.0 W/m2 CLR
09:41 -10.7 °C -12.7 °C 34760.7 hPa Calm     79 % 0 mm 244.0 W/m2 CLR
09:46 -10.4 °C -12.3 °C 34760.7 hPa Calm     79 % 0 mm 258.0 W/m2 CLR
09:51 -10.1 °C -12.2 °C 34760.7 hPa Calm     78 % 0 mm 276.0 W/m2 CLR
09:56 -9.8 °C -12 °C 34760.7 hPa Calm     77 % 0 mm 292.0 W/m2 CLR
10:01 -9.4 °C -11.8 °C 34760.7 hPa Calm     76 % 0 mm 195.0 W/m2 CLR
10:06 -9.1 °C -11.6 °C 34760.7 hPa Calm     75 % 0 mm 281.0 W/m2 CLR
10:11 -8.8 °C -11.3 °C 34760.7 hPa Calm     75 % 0 mm 341.0 W/m2 CLR
10:16 -8.5 °C -11.1 °C 34760.7 hPa Calm     74 % 0 mm 352.0 W/m2 CLR
10:21 -8.2 °C -10.8 °C 34760.7 hPa Calm     74 % 0 mm 362.0 W/m2 CLR
10:26 -7.9 °C -10.6 °C 34760.7 hPa Calm     73 % 0 mm 364.0 W/m2 CLR
10:31 -7.9 °C -10.7 °C 34760.7 hPa Calm     72 % 0 mm 387.0 W/m2 CLR
10:36 -7.6 °C -10.4 °C 34760.7 hPa Calm     72 % 0 mm 404.0 W/m2 CLR
10:41 -7.3 °C -10.2 °C 34760.7 hPa Calm     72 % 0 mm 420.0 W/m2 CLR
10:42 -7.3 °C -10.2 °C 34760.7 hPa Calm     72 % 0 mm 406.0 W/m2 CLR
10:47 -7.3 °C -10.4 °C 34760.7 hPa Calm     70 % 0 mm 415.0 W/m2 CLR
10:52 -7 °C -10.3 °C 34760.7 hPa Calm     68 % 0 mm 450.0 W/m2 CLR
10:57 -7 °C -10.3 °C 34760.7 hPa Calm     68 % 0 mm 457.0 W/m2 CLR
11:02 -7 °C -10.4 °C 34760.7 hPa Calm     67 % 0 mm 473.0 W/m2 CLR
11:07 -6.7 °C -10.3 °C 34760.7 hPa Calm     66 % 0 mm 485.0 W/m2 CLR
11:12 -6.7 °C -10.4 °C 34760.7 hPa Calm     65 % 0 mm 499.0 W/m2 CLR
11:17 -6.3 °C -10.4 °C 34760.7 hPa Calm     63 % 0 mm 510.0 W/m2 CLR
11:22 -6.3 °C -10.4 °C 34760.7 hPa Calm     63 % 0 mm 519.0 W/m2 CLR
11:27 -6.3 °C -10.4 °C 34760.7 hPa Calm     63 % 0 mm 529.0 W/m2 CLR
11:32 -6.1 °C -10.1 °C 34760.7 hPa Calm     63 % 0 mm 538.0 W/m2 CLR
11:37 -5.7 °C -9.9 °C 34760.7 hPa Calm     62 % 0 mm 552.0 W/m2 CLR
11:42 -5.7 °C -9.9 °C 34760.7 hPa Calm     62 % 0 mm 561.0 W/m2 CLR
11:47 -5.4 °C -9.8 °C 34760.7 hPa Calm     61 % 0 mm 571.0 W/m2 CLR
11:52 -5.4 °C -9.7 °C 34760.7 hPa North 5.1 km/h 5.1 km/h 62 % 0 mm 582.0 W/m2 CLR
11:57 -5.4 °C -9.9 °C 34760.7 hPa Calm     60 % 0 mm 589.0 W/m2 CLR
12:02 -5.1 °C -9.7 °C 34750.5 hPa WNW 3.1 km/h   60 % 0 mm 599.0 W/m2 CLR
12:07 -5.1 °C -9.7 °C 34750.5 hPa NNW 23.8 km/h 23.8 km/h 60 % 0 mm 606.0 W/m2 CLR
12:12 -4.8 °C -9.4 °C 34750.5 hPa North 6 km/h 6 km/h 60 % 0 mm 617.0 W/m2 CLR
12:17 -4.8 °C -9.5 °C 34750.5 hPa NW 12.9 km/h 12.9 km/h 59 % 0 mm 628.0 W/m2 CLR
12:22 -4.8 °C -9.5 °C 34750.5 hPa NNW 23.8 km/h 23.8 km/h 59 % 0 mm 624.0 W/m2 CLR
12:27 -4.5 °C -9.4 °C 34750.5 hPa NW 20.9 km/h 20.9 km/h 58 % 0 mm 636.0 W/m2 CLR
12:32 -4.5 °C -9.4 °C 34750.5 hPa WNW 9 km/h 9 km/h 58 % 0 mm 643.0 W/m2 CLR
12:37 -4.2 °C -9.1 °C 34750.5 hPa NW 20.9 km/h 20.9 km/h 58 % 0 mm 652.0 W/m2 CLR
12:42 -4.2 °C -9.2 °C 34750.5 hPa NNW 10.3 km/h 10.3 km/h 57 % 0 mm 656.0 W/m2 CLR
12:47 -4.2 °C -9.6 °C 34750.5 hPa NNW 23.8 km/h 23.8 km/h 55 % 0 mm 659.0 W/m2 CLR
12:52 -4.2 °C -9.6 °C 34750.5 hPa North 11.9 km/h 11.9 km/h 55 % 0 mm 663.0 W/m2 CLR
12:57 -4.2 °C -9.4 °C 34750.5 hPa NNW 23.3 km/h 23.3 km/h 56 % 0 mm 666.0 W/m2 CLR
13:02 -4.2 °C -9.6 °C 34740.4 hPa NNW 28.5 km/h 28.5 km/h 55 % 0 mm 673.0 W/m2 CLR
13:07 -4.2 °C -9.6 °C 34740.4 hPa NW 15 km/h 15 km/h 55 % 0 mm 670.0 W/m2 CLR
13:12 -3.9 °C -9.3 °C 34740.4 hPa NW 29.8 km/h 29.8 km/h 55 % 0 mm 680.0 W/m2 CLR
13:17 -3.9 °C -9.4 °C 34740.4 hPa WNW 29.8 km/h 29.8 km/h 54 % 0 mm 684.0 W/m2 CLR
13:22 -3.9 °C -9.3 °C 34740.4 hPa NW 12.9 km/h 13.2 km/h 55 % 0 mm 684.0 W/m2 CLR
13:27 -3.9 °C -9.4 °C 34740.4 hPa NNW 15.6 km/h 16.6 km/h 54 % 0 mm 682.0 W/m2 CLR
13:32 -3.6 °C -9.1 °C 34726.8 hPa WNW 20.9 km/h 20.9 km/h 54 % 0 mm 687.0 W/m2 CLR
13:37 -3.6 °C -9.1 °C 34726.8 hPa NNW 23.8 km/h 23.8 km/h 54 % 0 mm 693.0 W/m2 CLR
13:42 -3.6 °C -9.1 °C 34726.8 hPa NNW 28.5 km/h 28.5 km/h 54 % 0 mm 691.0 W/m2 CLR
13:47 -3.6 °C -9.3 °C 34726.8 hPa NNW 23.8 km/h 23.8 km/h 53 % 0 mm 693.0 W/m2 CLR
13:52 -3.6 °C -9.3 °C 34716.7 hPa NW 9 km/h   53 % 0 mm 696.0 W/m2 CLR
13:53 -3.6 °C -9.3 °C 34716.7 hPa NW 9 km/h 9 km/h 53 % 0 mm 694.0 W/m2 CLR
13:58 -3.6 °C -9.5 °C 34716.7 hPa NNW 26.9 km/h 26.9 km/h 52 % 0 mm 694.0 W/m2 CLR
14:03 -3.6 °C -9.5 °C 34716.7 hPa NW 26.9 km/h 26.9 km/h 52 % 0 mm 689.0 W/m2 CLR
14:08 -3.3 °C -9.2 °C 34716.7 hPa WNW 20.9 km/h 20.9 km/h 52 % 0 mm 689.0 W/m2 CLR
14:13 -3.3 °C -9.3 °C 34716.7 hPa NNW 17.9 km/h 17.9 km/h 51 % 0 mm 689.0 W/m2 CLR
14:18 -3.3 °C -9.5 °C 34703.1 hPa WNW 11.9 km/h   50 % 0 mm 684.0 W/m2 CLR
14:23 -2.9 °C -9.2 °C 34703.1 hPa North 20.9 km/h 20.9 km/h 50 % 0 mm 684.0 W/m2 CLR
14:28 -3.3 °C -9.5 °C 34703.1 hPa West 20.9 km/h 20.9 km/h 50 % 0 mm 680.0 W/m2 CLR
14:33 -2.9 °C -9.2 °C 34703.1 hPa NW 33.6 km/h 33.6 km/h 50 % 0 mm 673.0 W/m2 CLR
14:38 -2.9 °C -9.2 °C 34703.1 hPa NNW 17.9 km/h 17.9 km/h 50 % 0 mm 670.0 W/m2 CLR
14:43 -2.9 °C -9.2 °C 34703.1 hPa WNW 26.9 km/h 26.9 km/h 50 % 0 mm 666.0 W/m2 CLR
14:48 -2.9 °C -9.4 °C 34693 hPa WNW 29.8 km/h 29.8 km/h 49 % 0 mm 663.0 W/m2 CLR
14:53 -2.9 °C -9.4 °C 34693 hPa NW 26.9 km/h 26.9 km/h 49 % 0 mm 663.0 W/m2 CLR
14:58 -2.7 °C -9.3 °C 34693 hPa NW 20.9 km/h 20.9 km/h 48 % 0 mm 652.0 W/m2 CLR
15:03 -2.7 °C -9.3 °C 34693 hPa West 11.9 km/h 11.9 km/h 48 % 0 mm 650.0 W/m2 CLR
15:08 -2.7 °C -9.3 °C 34682.8 hPa WNW 31.1 km/h 31.1 km/h 48 % 0 mm 645.0 W/m2 CLR
15:13 -2.7 °C -9.3 °C 34682.8 hPa WNW 26.9 km/h 26.9 km/h 48 % 0 mm 640.0 W/m2 CLR
15:18 -2.7 °C -9.5 °C 34682.8 hPa North 29.8 km/h 29.8 km/h 47 % 0 mm 633.0 W/m2 CLR
15:23 -2.7 °C -9.5 °C 34682.8 hPa North 5.1 km/h 5.1 km/h 47 % 0 mm 624.0 W/m2 CLR
15:28 -2.7 °C -9.7 °C 34682.8 hPa NNE 20.9 km/h 20.9 km/h 46 % 0 mm 587.0 W/m2 CLR
15:33 -2.7 °C -9.7 °C 34682.8 hPa West 23.8 km/h 23.8 km/h 46 % 0 mm 610.0 W/m2 CLR
15:38 -2.3 °C -9.2 °C 34682.8 hPa NNW 20.8 km/h 20.8 km/h 47 % 0 mm 599.0 W/m2 CLR
15:43 -2.7 °C -9.7 °C 34669.3 hPa NW 17.9 km/h 17.9 km/h 46 % 0 mm 591.0 W/m2 CLR
15:48 -2.7 °C -9.8 °C 34669.3 hPa WNW 6 km/h   45 % 0 mm 582.0 W/m2 CLR
15:49 -2.7 °C -9.8 °C 34669.3 hPa NW 12.9 km/h 12.9 km/h 45 % 0 mm 582.0 W/m2 CLR
15:54 -2.7 °C -9.8 °C 34669.3 hPa NNE 20.9 km/h 20.9 km/h 45 % 0 mm 573.0 W/m2 CLR
15:59 -2.7 °C -9.8 °C 34669.3 hPa NW 15.6 km/h 15.6 km/h 45 % 0 mm 564.0 W/m2 CLR
16:04 -2.7 °C -10.1 °C 34669.3 hPa WNW 20.9 km/h 20.9 km/h 44 % 0 mm 559.0 W/m2 CLR
16:09 -2.7 °C -10.1 °C 34669.3 hPa WNW 15 km/h 15 km/h 44 % 0 mm 541.0 W/m2 CLR
16:14 -2.3 °C -9.8 °C 34669.3 hPa NNW 29.8 km/h 29.8 km/h 44 % 0 mm 533.0 W/m2 CLR
16:19 -2.3 °C -9.6 °C 34669.3 hPa WNW 11.9 km/h 11.9 km/h 45 % 0 mm 524.0 W/m2 CLR
16:24 -2.3 °C -9.9 °C 34669.3 hPa NNW 26.9 km/h 26.9 km/h 43 % 0 mm 515.0 W/m2 CLR
16:29 -2.3 °C -9.9 °C 34669.3 hPa NNW 15.6 km/h 15.6 km/h 43 % 0 mm 508.0 W/m2 CLR
16:34 -2.3 °C -9.8 °C 34659.1 hPa Calm     44 % 0 mm 455.0 W/m2 CLR
16:39 -2.3 °C -9.9 °C 34659.1 hPa NNW 9 km/h 9 km/h 43 % 0 mm 436.0 W/m2 CLR
16:44 -2.3 °C -9.9 °C 34659.1 hPa NW 20.9 km/h 20.9 km/h 43 % 0 mm 471.0 W/m2 CLR
16:49 -2.7 °C -10.4 °C 34659.1 hPa West 7.7 km/h 7.7 km/h 42 % 0 mm 457.0 W/m2 CLR
16:54 -2.3 °C -10.2 °C 34659.1 hPa WNW 20.9 km/h 20.9 km/h 42 % 0 mm 446.0 W/m2 CLR
16:59 -2.3 °C -9.8 °C 34659.1 hPa North 15.6 km/h 15.6 km/h 44 % 0 mm 431.0 W/m2 CLR
17:04 -2.7 °C -10.1 °C 34659.1 hPa West 11.9 km/h 11.9 km/h 44 % 0 mm 406.0 W/m2 CLR
17:09 -2.7 °C -9.8 °C 34659.1 hPa NNW 29.8 km/h 29.8 km/h 45 % 0 mm 404.0 W/m2 CLR
17:14 -2.7 °C -9.3 °C 34659.1 hPa NNE 18.2 km/h 18.2 km/h 48 % 0 mm 396.0 W/m2 CLR
17:19 -2.7 °C -9.1 °C 34659.1 hPa NNE 20.9 km/h 20.9 km/h 49 % 0 mm 387.0 W/m2 CLR
17:24 -2.7 °C -8.6 °C 34659.1 hPa NNW 26.9 km/h 26.9 km/h 52 % 0 mm 383.0 W/m2 CLR
17:29 -2.7 °C -8.6 °C 34645.6 hPa North 3.1 km/h   52 % 0 mm 367.0 W/m2 CLR
17:34 -2.7 °C -8.6 °C 34645.6 hPa NE 23.8 km/h 23.8 km/h 52 % 0 mm 346.0 W/m2 CLR
17:39 -2.7 °C -8.6 °C 34645.6 hPa NE 15 km/h 15 km/h 52 % 0 mm 302.0 W/m2 CLR
17:44 -2.7 °C -8.6 °C 34645.6 hPa NE 10.3 km/h 10.3 km/h 52 % 0 mm 260.0 W/m2 CLR
17:49 -2.7 °C -8.8 °C 34645.6 hPa NE 9 km/h 9 km/h 51 % 0 mm 248.0 W/m2 CLR
17:54 -2.7 °C -8.4 °C 34645.6 hPa East 29.8 km/h 29.8 km/h 53 % 0 mm 199.0 W/m2 CLR
17:59 -2.9 °C -8.4 °C 34645.6 hPa ENE 23.8 km/h 23.8 km/h 55 % 0 mm 278.0 W/m2 CLR
18:04 -2.9 °C -8.4 °C 34645.6 hPa ENE 26.9 km/h 26.9 km/h 55 % 0 mm 267.0 W/m2 CLR
18:09 -3.3 °C -8.5 °C 34645.6 hPa NE 23.8 km/h 23.8 km/h 56 % 0 mm 237.0 W/m2 CLR
18:14 -3.3 °C -8.5 °C 34645.6 hPa NNE 17.9 km/h 17.9 km/h 56 % 0 mm 156.0 W/m2 CLR
18:19 -3.6 °C -8.7 °C 34645.6 hPa NE 12.9 km/h 12.9 km/h 57 % 0 mm 151.0 W/m2 CLR
18:24 -3.6 °C -8.7 °C 34645.6 hPa NE 15.6 km/h 15.6 km/h 57 % 0 mm 76.0 W/m2 CLR
18:29 -3.6 °C -8.5 °C 34645.6 hPa NE 18.2 km/h 18.2 km/h 58 % 0 mm 95.0 W/m2 CLR
18:34 -3.9 °C -8.8 °C 34645.6 hPa NE 26.9 km/h 26.9 km/h 58 % 0 mm 51.0 W/m2 FEW
18:39 -3.9 °C -8.8 °C 34645.6 hPa NE 20.9 km/h 20.9 km/h 58 % 0 mm 37.0 W/m2 BKN
18:44 -4.2 °C -8.8 °C 34645.6 hPa NE 29.8 km/h 29.8 km/h 60 % 0 mm 37.0 W/m2 BKN
18:49 -4.2 °C -8.7 °C 34645.6 hPa NNE 18.2 km/h 18.2 km/h 61 % 0 mm 28.0 W/m2 BKN
18:54 -4.5 °C -8.8 °C 34645.6 hPa NE 26.9 km/h 26.9 km/h 62 % 0 mm 23.0 W/m2 BKN
18:59 -4.5 °C -8.8 °C 34659.1 hPa NE 15.6 km/h 15.6 km/h 62 % 0 mm 23.0 W/m2 BKN
19:04 -4.8 °C -8.9 °C 34659.1 hPa NE 23.8 km/h 23.8 km/h 63 % 0 mm 28.0 W/m2 BKN
19:09 -4.8 °C -8.9 °C 34659.1 hPa ENE 11.9 km/h 11.9 km/h 63 % 0 mm 19.0 W/m2 BKN
19:14 -5.1 °C -9.1 °C 34659.1 hPa NE 15 km/h 15 km/h 64 % 0 mm 14.0 W/m2 BKN
19:19 -5.1 °C -9 °C 34659.1 hPa ENE 12.9 km/h 12.9 km/h 65 % 0 mm 12.0 W/m2 BKN
19:24 -5.4 °C -9.3 °C 34669.3 hPa Calm   4.3 km/h 65 % 0 mm 11.0 W/m2 BKN
19:30 -5.4 °C -9.1 °C 34659.1 hPa Calm   1.8 km/h 66 % 0 mm 7.0 W/m2 BKN
19:35 -5.4 °C -9.1 °C 34659.1 hPa ENE 20.9 km/h 20.9 km/h 66 % 0 mm 0.0 W/m2 OVC
19:40 -5.7 °C -9.3 °C 34659.1 hPa ENE 23.3 km/h 23.3 km/h 67 % 0 mm 0.0 W/m2 OVC
19:45 -5.7 °C -9.2 °C 34659.1 hPa ENE 23.8 km/h 23.8 km/h 68 % 0 mm 0.0 W/m2 OVC
19:50 -6.1 °C -9.4 °C 34659.1 hPa ENE 25.9 km/h 25.9 km/h 68 % 0 mm 0.0 W/m2 CLR
19:55 -6.1 °C -9.3 °C 34669.3 hPa ENE 23.8 km/h 23.8 km/h 69 % 0 mm 0.0 W/m2 CLR
20:00 -5.7 °C -9.1 °C 34669.3 hPa ENE 11.9 km/h 11.9 km/h 69 % 0 mm 0.0 W/m2 CLR
20:05 -6.1 °C -9.3 °C 34669.3 hPa East 10.3 km/h 11.4 km/h 69 % 0 mm 0.0 W/m2 CLR
20:10 -6.1 °C -9.3 °C 34669.3 hPa Calm     69 % 0 mm 0.0 W/m2 CLR
20:15 -6.3 °C -9.5 °C 34669.3 hPa ENE 10.3 km/h 10.3 km/h 70 % 0 mm 0.0 W/m2 CLR
20:20 -6.7 °C -9.8 °C 34669.3 hPa Calm     70 % 0 mm 0.0 W/m2 CLR
20:25 -7 °C -9.9 °C 34682.8 hPa East 12.9 km/h 12.9 km/h 71 % 0 mm 0.0 W/m2 CLR
20:30 -7 °C -9.9 °C 34682.8 hPa East 17.9 km/h 17.9 km/h 71 % 0 mm 0.0 W/m2 CLR
20:35 -7 °C -9.9 °C 34682.8 hPa ENE 23.8 km/h 23.8 km/h 71 % 0 mm 0.0 W/m2 CLR
20:40 -7.3 °C -10.3 °C 34682.8 hPa ENE 18.2 km/h 18.2 km/h 71 % 0 mm 0.0 W/m2 CLR
20:45 -7.3 °C -10.2 °C 34682.8 hPa ENE 9 km/h 9 km/h 72 % 0 mm 0.0 W/m2 CLR
20:50 -7.3 °C -10.2 °C 34682.8 hPa ENE 5.1 km/h 5.1 km/h 72 % 0 mm 0.0 W/m2 CLR
20:55 -7.6 °C -10.4 °C 34682.8 hPa ENE 9 km/h 9 km/h 72 % 0 mm 0.0 W/m2 CLR
21:00 -7.6 °C -10.3 °C 34682.8 hPa Calm     73 % 0 mm 0.0 W/m2 CLR
21:05 -7.9 °C -10.6 °C 34682.8 hPa Calm     73 % 0 mm 0.0 W/m2 CLR
21:10 -7.9 °C -10.5 °C 34693 hPa Calm     74 % 0 mm 0.0 W/m2 CLR
21:15 -8.2 °C -10.8 °C 34693 hPa Calm     74 % 0 mm 0.0 W/m2 CLR
21:30 -8.5 °C -11.1 °C 34693 hPa Calm     74 % 0 mm 0.0 W/m2 CLR
21:35 -8.5 °C -11 °C 34693 hPa Calm     75 % 0 mm 0.0 W/m2 CLR
21:40 -8.5 °C -10.9 °C 34693 hPa Calm     76 % 0 mm 0.0 W/m2 CLR
21:45 -8.8 °C -11.3 °C 34693 hPa Calm     75 % 0 mm 0.0 W/m2 CLR
21:50 -8.8 °C -11.2 °C 34693 hPa Calm     76 % 0 mm 0.0 W/m2 CLR
21:55 -8.8 °C -11.2 °C 34693 hPa Calm     76 % 0 mm 0.0 W/m2 CLR
22:00 -8.8 °C -11.2 °C 34693 hPa Calm     76 % 0 mm 0.0 W/m2 CLR
22:05 -8.8 °C -11.1 °C 34703.1 hPa Calm     77 % 0 mm 0.0 W/m2 CLR
22:10 -8.8 °C -11.1 °C 34693 hPa Calm     77 % 0 mm 0.0 W/m2 CLR
22:15 -9.1 °C -11.3 °C 34703.1 hPa Calm     77 % 0 mm 0.0 W/m2 CLR
22:20 -9.1 °C -11.3 °C 34703.1 hPa Calm     78 % 0 mm 0.0 W/m2 CLR
22:25 -9.1 °C -11.3 °C 34703.1 hPa Calm     78 % 0 mm 0.0 W/m2 CLR
22:30 -9.1 °C -11.3 °C 34703.1 hPa Calm     77 % 0 mm 0.0 W/m2 CLR
22:35 -9.1 °C -11.3 °C 34703.1 hPa Calm     78 % 0 mm 0.0 W/m2 CLR
22:40 -9.4 °C -11.6 °C 34703.1 hPa Calm     78 % 0 mm 0.0 W/m2 CLR
22:45 -9.4 °C -11.4 °C 34703.1 hPa Calm     79 % 0 mm 0.0 W/m2 CLR
22:50 -9.4 °C -11.4 °C 34703.1 hPa Calm     79 % 0 mm 0.0 W/m2 CLR
22:55 -9.4 °C -11.4 °C 34703.1 hPa Calm     79 % 0 mm 0.0 W/m2 CLR
23:00 -9.4 °C -11.3 °C 34703.1 hPa Calm     80 % 0 mm 0.0 W/m2 CLR
23:06 -9.4 °C -11.2 °C 34703.1 hPa Calm     81 % 0 mm 0.0 W/m2 CLR
23:11 -9.8 °C -11.6 °C 34703.1 hPa Calm     81 % 0 mm 0.0 W/m2 CLR
23:16 -9.4 °C -11.3 °C 34703.1 hPa Calm     80 % 0 mm 0.0 W/m2 CLR
23:21 -9.8 °C -11.6 °C 34716.7 hPa Calm     81 % 0 mm 0.0 W/m2 CLR
23:26 -9.8 °C -11.4 °C 34716.7 hPa Calm     82 % 0 mm 0.0 W/m2 CLR
23:31 -9.8 °C -11.4 °C 34716.7 hPa Calm     82 % 0 mm 0.0 W/m2 CLR
23:36 -9.8 °C -11.4 °C 34716.7 hPa Calm     82 % 0 mm 0.0 W/m2 CLR
23:41 -9.8 °C -11.3 °C 34716.7 hPa Calm     83 % 0 mm 0.0 W/m2 CLR
23:46 -9.4 °C -11.1 °C 34716.7 hPa Calm     83 % 0 mm 0.0 W/m2 CLR
23:56 -9.8 °C -11.2 °C 34716.7 hPa Calm     84 % 0 mm 0.0 W/m2 CLR
Lo Temps de Massalio
Compliments of Weather Underground - 1.25 mb